| time (UTC) | temp C | wind direction | speed KPH | gust KPH | rain 1hr cm | rain 24hr cm | rain mn cm | humidity % | barometer mb |
| 20260508220702 | 17 | 261 | 3.2 | 3.2 | 0.00 | 0.00 | 0.00 | 53 | 1000.0 |
| 20260508220202 | 17 | 192 | 3.2 | 3.2 | 0.00 | 0.00 | 0.00 | 55 | 1000.0 |
| 20260508215703 | 17 | 203 | 4.8 | 4.8 | 0.00 | 0.00 | 0.00 | 54 | 1000.0 |
| 20260508215202 | 17 | 234 | 3.2 | 3.2 | 0.00 | 0.00 | 0.00 | 54 | 1000.0 |
| 20260508214704 | 18 | 192 | 1.6 | 1.6 | 0.00 | 0.00 | 0.00 | 50 | 1000.0 |
| 20260508214203 | 18 | 238 | 3.2 | 3.2 | 0.00 | 0.00 | 0.00 | 40 | 1000.0 |
| 20260508213702 | 18 | 342 | 1.6 | 1.6 | 0.00 | 0.00 | 0.00 | 39 | 1000.0 |
| 20260508213202 | 18 | 294 | 3.2 | 3.2 | 0.00 | 0.00 | 0.00 | 40 | 1000.0 |
| 20260508212703 | 18 | 255 | 3.2 | 3.2 | 0.00 | 0.00 | 0.00 | 50 | 1000.0 |
| 20260508212203 | 18 | 102 | 1.6 | 1.6 | 0.00 | 0.00 | 0.00 | 49 | 1000.0 |
| 20260508211702 | 19 | 138 | 0.0 | 0.0 | 0.00 | 0.00 | 0.00 | 48 | 1000.0 |
| 20260508211202 | 18 | 245 | 3.2 | 3.2 | 0.00 | 0.00 | 0.00 | 48 | 1000.0 |
| 20260508210703 | 17 | 117 | 3.2 | 3.2 | 0.00 | 0.00 | 0.00 | 50 | 1000.0 |
| 20260508210202 | 17 | 227 | 3.2 | 3.2 | 0.00 | 0.00 | 0.00 | 51 | 1000.0 |
| 20260508205702 | 18 | 120 | 3.2 | 3.2 | 0.00 | 0.00 | 0.00 | 48 | 1000.0 |
| 20260508205203 | 18 | 220 | 1.6 | 1.6 | 0.00 | 0.00 | 0.00 | 49 | 1000.0 |
| 20260508204703 | 18 | 180 | 1.6 | 1.6 | 0.00 | 0.00 | 0.00 | 47 | 1000.0 |
| 20260508204202 | 18 | 200 | 0.0 | 0.0 | 0.00 | 0.00 | 0.00 | 46 | 1000.0 |
| 20260508203703 | 18 | 200 | 0.0 | 0.0 | 0.00 | 0.00 | 0.00 | 46 | 1000.0 |
| 20260508203202 | 18 | 246 | 4.8 | 4.8 | 0.00 | 0.00 | 0.00 | 46 | 1000.0 |
| 20260508202702 | 18 | 258 | 0.0 | 0.0 | 0.00 | 0.00 | 0.00 | 45 | 1001.0 |
| 20260508202202 | 17 | 309 | 1.6 | 1.6 | 0.00 | 0.00 | 0.00 | 44 | 1001.0 |
| 20260508201702 | 18 | 245 | 3.2 | 3.2 | 0.00 | 0.00 | 0.00 | 45 | 1001.0 |
| 20260508201202 | 17 | 42 | 3.2 | 3.2 | 0.00 | 0.00 | 0.00 | 43 | 1001.0 |
| 20260508200702 | 17 | 270 | 3.2 | 3.2 | 0.00 | 0.00 | 0.00 | 37 | 1001.0 |
| 20260508200202 | 18 | 276 | 4.8 | 4.8 | 0.00 | 0.00 | 0.00 | 35 | 1001.0 |
| 20260508195702 | 18 | 265 | 3.2 | 3.2 | 0.00 | 0.00 | 0.00 | 35 | 1001.0 |
| 20260508195202 | 18 | 244 | 3.2 | 3.2 | 0.00 | 0.00 | 0.00 | 37 | 1001.0 |
| 20260508194702 | 18 | 83 | 3.2 | 3.2 | 0.00 | 0.00 | 0.00 | 38 | 1001.0 |
| 20260508194202 | 18 | 250 | 3.2 | 3.2 | 0.00 | 0.00 | 0.00 | 36 | 1002.0 |
| 20260508193702 | 17 | 270 | 3.2 | 3.2 | 0.00 | 0.00 | 0.00 | 37 | 1002.0 |
| 20260508193203 | 17 | 247 | 3.2 | 3.2 | 0.00 | 0.00 | 0.00 | 38 | 1002.0 |
| 20260508192702 | 18 | 261 | 3.2 | 3.2 | 0.00 | 0.00 | 0.00 | 35 | 1002.0 |
| 20260508192202 | 18 | 245 | 3.2 | 3.2 | 0.00 | 0.00 | 0.00 | 33 | 1002.0 |
| 20260508191703 | 17 | 268 | 3.2 | 3.2 | 0.00 | 0.00 | 0.00 | 32 | 1002.0 |
| 20260508191202 | 18 | 269 | 3.2 | 3.2 | 0.00 | 0.00 | 0.00 | 32 | 1002.0 |
| 20260508190702 | 17 | 318 | 3.2 | 3.2 | 0.00 | 0.00 | 0.00 | 32 | 1002.0 |
| 20260508190203 | 17 | 289 | 3.2 | 3.2 | 0.00 | 0.00 | 0.00 | 34 | 1002.0 |
| 20260508185702 | 17 | 235 | 3.2 | 3.2 | 0.00 | 0.00 | 0.00 | 31 | 1002.0 |
| 20260508185203 | 18 | 242 | 6.4 | 6.4 | 0.00 | 0.00 | 0.00 | 33 | 1002.0 |
| 20260508184703 | 18 | 348 | 3.2 | 3.2 | 0.00 | 0.00 | 0.00 | 32 | 1002.0 |
| 20260508184203 | 17 | 300 | 3.2 | 3.2 | 0.00 | 0.00 | 0.00 | 34 | 1002.0 |
| 20260508183702 | 17 | 216 | 3.2 | 3.2 | 0.00 | 0.00 | 0.00 | 37 | 1002.0 |
| 20260508183202 | 17 | 222 | 3.2 | 3.2 | 0.00 | 0.00 | 0.00 | 37 | 1002.0 |
| 20260508182702 | 17 | 250 | 4.8 | 4.8 | 0.00 | 0.00 | 0.00 | 35 | 1002.0 |
| 20260508182202 | 18 | 313 | 4.8 | 4.8 | 0.00 | 0.00 | 0.00 | 34 | 1002.0 |
| 20260508181702 | 17 | 235 | 4.8 | 4.8 | 0.00 | 0.00 | 0.00 | 36 | 1002.0 |
| 20260508181206 | 17 | 246 | 3.2 | 3.2 | 0.00 | 0.00 | 0.00 | 37 | 1002.0 |
| 20260508180705 | 17 | 12 | 3.2 | 3.2 | 0.00 | 0.00 | 0.00 | 35 | 1002.0 |
| 20260508180202 | 16 | 227 | 4.8 | 4.8 | 0.00 | 0.00 | 0.00 | 37 | 1002.0 |
| 20260508175703 | 17 | 225 | 4.8 | 4.8 | 0.00 | 0.00 | 0.00 | 34 | 1003.0 |
| 20260508175202 | 17 | 324 | 0.0 | 0.0 | 0.00 | 0.00 | 0.00 | 34 | 1003.0 |
| 20260508174703 | 17 | 246 | 8.0 | 9.7 | 0.00 | 0.00 | 0.00 | 35 | 1003.0 |
| 20260508174203 | 16 | 222 | 1.6 | 1.6 | 0.00 | 0.00 | 0.00 | 33 | 1003.0 |
| 20260508173704 | 17 | 308 | 1.6 | 1.6 | 0.00 | 0.00 | 0.00 | 33 | 1003.0 |
| 20260508173202 | 16 | 247 | 4.8 | 4.8 | 0.00 | 0.00 | 0.00 | 35 | 1003.0 |
| 20260508172704 | 16 | 6 | 1.6 | 1.6 | 0.00 | 0.00 | 0.00 | 36 | 1003.0 |
| 20260508172203 | 16 | 242 | 3.2 | 3.2 | 0.00 | 0.00 | 0.00 | 37 | 1003.0 |
| 20260508171702 | 16 | 219 | 4.8 | 4.8 | 0.00 | 0.00 | 0.00 | 37 | 1003.0 |
| 20260508171203 | 16 | 25 | 3.2 | 3.2 | 0.00 | 0.00 | 0.00 | 35 | 1003.0 |
| 20260508170702 | 16 | 36 | 1.6 | 1.6 | 0.00 | 0.00 | 0.00 | 36 | 1003.0 |
| 20260508170203 | 16 | 342 | 3.2 | 3.2 | 0.00 | 0.00 | 0.00 | 38 | 1003.0 |
| 20260508165702 | 16 | 54 | 3.2 | 3.2 | 0.00 | 0.00 | 0.00 | 38 | 1004.0 |
| 20260508165207 | 16 | 5 | 3.2 | 3.2 | 0.00 | 0.00 | 0.00 | 37 | 1004.0 |
| 20260508164705 | 16 | 43 | 3.2 | 3.2 | 0.00 | 0.00 | 0.00 | 36 | 1004.0 |
| 20260508164202 | 15 | 266 | 3.2 | 3.2 | 0.00 | 0.00 | 0.00 | 41 | 1004.0 |
| 20260508163704 | 15 | 242 | 3.2 | 3.2 | 0.00 | 0.00 | 0.00 | 40 | 1004.0 |
| 20260508163202 | 15 | 270 | 0.0 | 0.0 | 0.00 | 0.00 | 0.00 | 40 | 1004.0 |
| 20260508162704 | 15 | 18 | 4.8 | 4.8 | 0.00 | 0.00 | 0.00 | 40 | 1004.0 |
| 20260508162203 | 15 | 250 | 3.2 | 3.2 | 0.00 | 0.00 | 0.00 | 36 | 1004.0 |
| 20260508161702 | 15 | 247 | 3.2 | 3.2 | 0.00 | 0.00 | 0.00 | 40 | 1004.0 |
| 20260508161209 | 15 | 252 | 3.2 | 3.2 | 0.00 | 0.00 | 0.00 | 37 | 1004.0 |
| 20260508160702 | 15 | 210 | 4.8 | 4.8 | 0.00 | 0.00 | 0.00 | 38 | 1004.0 |
| 20260508160203 | 16 | 306 | 4.8 | 4.8 | 0.00 | 0.00 | 0.00 | 36 | 1004.0 |
| 20260508155703 | 15 | 0 | 0.0 | 0.0 | 0.00 | 0.00 | 0.00 | 40 | 1004.0 |
| 20260508155204 | 15 | 60 | 1.6 | 1.6 | 0.00 | 0.00 | 0.00 | 42 | 1004.0 |
| 20260508154702 | 15 | 348 | 3.2 | 3.2 | 0.00 | 0.00 | 0.00 | 43 | 1004.0 |
| 20260508154202 | 16 | 42 | 3.2 | 3.2 | 0.00 | 0.00 | 0.00 | 39 | 1004.0 |
| 20260508153704 | 16 | 54 | 1.6 | 1.6 | 0.00 | 0.00 | 0.00 | 39 | 1004.0 |
| 20260508153202 | 15 | 18 | 3.2 | 3.2 | 0.00 | 0.00 | 0.00 | 40 | 1004.0 |
| 20260508152704 | 15 | 251 | 0.0 | 0.0 | 0.00 | 0.00 | 0.00 | 40 | 1004.0 |
| 20260508152206 | 15 | 83 | 0.0 | 0.0 | 0.00 | 0.00 | 0.00 | 46 | 1004.0 |
| 20260508151702 | 13 | 108 | 3.2 | 3.2 | 0.00 | 0.00 | 0.00 | 47 | 1004.0 |
| 20260508151202 | 12 | 42 | 4.8 | 4.8 | 0.00 | 0.00 | 0.00 | 48 | 1005.0 |
| 20260508150709 | 13 | 240 | 4.8 | 4.8 | 0.00 | 0.00 | 0.00 | 49 | 1005.0 |
| 20260508150202 | 13 | 107 | 0.0 | 0.0 | 0.00 | 0.00 | 0.00 | 48 | 1005.0 |
| 20260508145702 | 13 | 216 | 3.2 | 3.2 | 0.00 | 0.00 | 0.00 | 49 | 1005.0 |
| 20260508145203 | 13 | 246 | 3.2 | 3.2 | 0.00 | 0.00 | 0.00 | 51 | 1005.0 |
| 20260508144702 | 13 | 359 | 1.6 | 1.6 | 0.00 | 0.00 | 0.00 | 52 | 1005.0 |
| 20260508144203 | 13 | 222 | 3.2 | 3.2 | 0.00 | 0.00 | 0.00 | 51 | 1005.0 |
| 20260508143703 | 13 | 342 | 3.2 | 3.2 | 0.00 | 0.00 | 0.00 | 51 | 1005.0 |
| 20260508143203 | 13 | 242 | 1.6 | 1.6 | 0.00 | 0.00 | 0.00 | 53 | 1005.0 |
| 20260508142704 | 12 | 266 | 3.2 | 3.2 | 0.00 | 0.00 | 0.00 | 56 | 1005.0 |
| 20260508142203 | 12 | 238 | 4.8 | 6.4 | 0.00 | 0.00 | 0.00 | 54 | 1005.0 |
| 20260508141702 | 12 | 252 | 3.2 | 3.2 | 0.00 | 0.00 | 0.00 | 55 | 1005.0 |
| 20260508141203 | 13 | 252 | 1.6 | 1.6 | 0.00 | 0.00 | 0.00 | 54 | 1005.0 |
| 20260508140702 | 13 | 15 | 1.6 | 1.6 | 0.00 | 0.00 | 0.00 | 55 | 1005.0 |
| 20260508140203 | 13 | 78 | 1.6 | 1.6 | 0.00 | 0.00 | 0.00 | 57 | 1005.0 |
| 20260508135702 | 13 | 78 | 3.2 | 3.2 | 0.00 | 0.00 | 0.00 | 54 | 1005.0 |
| 20260508135202 | 13 | 90 | 3.2 | 3.2 | 0.00 | 0.00 | 0.00 | 56 | 1005.0 |
| 20260508134702 | 13 | 38 | 3.2 | 3.2 | 0.00 | 0.00 | 0.00 | 54 | 1005.0 |
| 20260508134203 | 13 | 72 | 1.6 | 1.6 | 0.00 | 0.00 | 0.00 | 56 | 1005.0 |
| 20260508133703 | 12 | 80 | 1.6 | 1.6 | 0.00 | 0.00 | 0.00 | 62 | 1005.0 |
| 20260508133203 | 11 | 256 | 1.6 | 1.6 | 0.00 | 0.00 | 0.00 | 62 | 1005.0 |
| 20260508132703 | 10 | 256 | 0.0 | 0.0 | 0.00 | 0.00 | 0.00 | 67 | 1005.0 |
| 20260508132202 | 11 | 256 | 3.2 | 3.2 | 0.00 | 0.00 | 0.00 | 64 | 1005.0 |
| 20260508131702 | 11 | 256 | 3.2 | 3.2 | 0.00 | 0.00 | 0.00 | 65 | 1005.0 |
| 20260508131202 | 11 | 246 | 0.0 | 0.0 | 0.00 | 0.00 | 0.00 | 64 | 1005.0 |
| 20260508130702 | 10 | 246 | 3.2 | 3.2 | 0.00 | 0.00 | 0.00 | 71 | 1005.0 |
| 20260508130203 | 10 | 246 | 3.2 | 3.2 | 0.00 | 0.00 | 0.00 | 69 | 1005.0 |
| 20260508125702 | 10 | 246 | 0.0 | 0.0 | 0.00 | 0.00 | 0.00 | 69 | 1005.0 |
| 20260508125202 | 10 | 246 | 1.6 | 1.6 | 0.00 | 0.00 | 0.00 | 70 | 1005.0 |
| 20260508124702 | 10 | 246 | 0.0 | 0.0 | 0.00 | 0.00 | 0.00 | 69 | 1005.0 |
| 20260508124203 | 11 | 54 | 0.0 | 0.0 | 0.00 | 0.00 | 0.00 | 67 | 1005.0 |
| 20260508123704 | 10 | 48 | 0.0 | 0.0 | 0.00 | 0.00 | 0.00 | 66 | 1005.0 |
| 20260508123202 | 10 | 48 | 0.0 | 0.0 | 0.00 | 0.00 | 0.00 | 74 | 1005.0 |
| 20260508122702 | 10 | 48 | 1.6 | 1.6 | 0.00 | 0.00 | 0.00 | 70 | 1005.0 |
| 20260508122204 | 11 | 48 | 0.0 | 0.0 | 0.00 | 0.00 | 0.00 | 71 | 1005.0 |
| 20260508121703 | 10 | 48 | 3.2 | 3.2 | 0.00 | 0.00 | 0.00 | 68 | 1005.0 |
| 20260508121203 | 10 | 48 | 0.0 | 0.0 | 0.00 | 0.00 | 0.00 | 72 | 1005.0 |
| 20260508120702 | 10 | 48 | 3.2 | 3.2 | 0.00 | 0.00 | 0.00 | 71 | 1005.0 |
| 20260508120202 | 10 | 48 | 0.0 | 0.0 | 0.00 | 0.00 | 0.00 | 72 | 1005.0 |
| 20260508115703 | 9 | 48 | 1.6 | 1.6 | 0.00 | 0.00 | 0.00 | 73 | 1005.0 |
| 20260508115202 | 9 | 44 | 0.0 | 0.0 | 0.00 | 0.00 | 0.00 | 74 | 1005.0 |
| 20260508114704 | 8 | 42 | 0.0 | 0.0 | 0.00 | 0.00 | 0.00 | 75 | 1005.0 |
| 20260508114203 | 8 | 42 | 0.0 | 0.0 | 0.00 | 0.00 | 0.00 | 77 | 1004.0 |
| 20260508113702 | 8 | 48 | 0.0 | 0.0 | 0.00 | 0.00 | 0.00 | 78 | 1004.0 |
| 20260508113203 | 7 | 48 | 0.0 | 0.0 | 0.00 | 0.00 | 0.00 | 79 | 1004.0 |
| 20260508112702 | 7 | 30 | 0.0 | 0.0 | 0.00 | 0.00 | 0.00 | 82 | 1004.0 |
| 20260508112202 | 6 | 29 | 0.0 | 0.0 | 0.00 | 0.00 | 0.00 | 86 | 1004.0 |
| 20260508111702 | 6 | 28 | 0.0 | 0.0 | 0.00 | 0.00 | 0.00 | 89 | 1004.0 |
| 20260508111203 | 5 | 27 | 0.0 | 0.0 | 0.00 | 0.00 | 0.00 | 94 | 1004.0 |
| 20260508110702 | 5 | 24 | 0.0 | 0.0 | 0.00 | 0.00 | 0.00 | 95 | 1004.0 |
| 20260508110203 | 5 | 24 | 0.0 | 0.0 | 0.00 | 0.00 | 0.00 | 95 | 1004.0 |
| 20260508105703 | 4 | 168 | 0.0 | 0.0 | 0.00 | 0.00 | 0.00 | 96 | 1004.0 |
| 20260508105202 | 4 | 190 | 0.0 | 0.0 | 0.00 | 0.00 | 0.00 | 96 | 1004.0 |
| 20260508104702 | 4 | 186 | 0.0 | 0.0 | 0.00 | 0.00 | 0.00 | 96 | 1004.0 |
| 20260508104202 | 4 | 186 | 0.0 | 0.0 | 0.00 | 0.00 | 0.00 | 96 | 1004.0 |
| 20260508103703 | 4 | 186 | 0.0 | 0.0 | 0.00 | 0.00 | 0.00 | 96 | 1004.0 |
| 20260508103202 | 4 | 186 | 1.6 | 1.6 | 0.00 | 0.00 | 0.00 | 97 | 1004.0 |
| 20260508102705 | 4 | 186 | 0.0 | 0.0 | 0.00 | 0.00 | 0.00 | 97 | 1004.0 |
| 20260508102203 | 4 | 186 | 0.0 | 0.0 | 0.00 | 0.00 | 0.00 | 97 | 1004.0 |
| 20260508101703 | 4 | 186 | 0.0 | 0.0 | 0.00 | 0.00 | 0.00 | 97 | 1004.0 |
| 20260508101205 | 4 | 192 | 0.0 | 0.0 | 0.00 | 0.00 | 0.00 | 97 | 1004.0 |
| 20260508100704 | 4 | 204 | 0.0 | 0.0 | 0.00 | 0.00 | 0.00 | 97 | 1004.0 |
| 20260508100202 | 4 | 258 | 0.0 | 0.0 | 0.00 | 0.00 | 0.00 | 97 | 1004.0 |
| 20260508095705 | 5 | 288 | 0.0 | 0.0 | 0.00 | 0.00 | 0.00 | 97 | 1004.0 |
| 20260508095202 | 5 | 306 | 0.0 | 0.0 | 0.00 | 0.00 | 0.00 | 97 | 1004.0 |
| 20260508094703 | 5 | 318 | 0.0 | 0.0 | 0.00 | 0.00 | 0.00 | 97 | 1004.0 |
| 20260508094203 | 5 | 330 | 0.0 | 0.0 | 0.00 | 0.00 | 0.00 | 97 | 1004.0 |
| 20260508093702 | 5 | 336 | 0.0 | 0.0 | 0.00 | 0.00 | 0.00 | 97 | 1004.0 |
| 20260508093202 | 5 | 336 | 0.0 | 0.0 | 0.00 | 0.00 | 0.00 | 97 | 1004.0 |
| 20260508092703 | 5 | 336 | 0.0 | 0.0 | 0.00 | 0.00 | 0.00 | 97 | 1004.0 |
| 20260508092202 | 5 | 336 | 0.0 | 0.0 | 0.00 | 0.00 | 0.00 | 97 | 1004.0 |
| 20260508091702 | 5 | 336 | 1.6 | 1.6 | 0.00 | 0.00 | 0.00 | 97 | 1004.0 |
| 20260508091202 | 5 | 336 | 3.2 | 3.2 | 0.00 | 0.00 | 0.00 | 97 | 1004.0 |
| 20260508090703 | 5 | 336 | 0.0 | 0.0 | 0.00 | 0.00 | 0.00 | 97 | 1004.0 |
| 20260508090202 | 5 | 334 | 0.0 | 0.0 | 0.00 | 0.00 | 0.00 | 97 | 1004.0 |
| 20260508085704 | 5 | 334 | 0.0 | 0.0 | 0.00 | 0.00 | 0.00 | 97 | 1004.0 |
| 20260508085203 | 5 | 334 | 0.0 | 0.0 | 0.00 | 0.00 | 0.00 | 97 | 1004.0 |
| 20260508084704 | 5 | 334 | 0.0 | 0.0 | 0.00 | 0.00 | 0.00 | 96 | 1004.0 |
| 20260508084204 | 5 | 334 | 0.0 | 0.0 | 0.00 | 0.00 | 0.00 | 97 | 1004.0 |
| 20260508083703 | 5 | 334 | 0.0 | 0.0 | 0.00 | 0.00 | 0.00 | 96 | 1004.0 |
| 20260508083203 | 5 | 334 | 0.0 | 0.0 | 0.00 | 0.00 | 0.00 | 96 | 1004.0 |
| 20260508082703 | 5 | 335 | 0.0 | 0.0 | 0.00 | 0.00 | 0.00 | 96 | 1004.0 |
| 20260508082207 | 5 | 335 | 0.0 | 0.0 | 0.00 | 0.00 | 0.00 | 96 | 1004.0 |
| 20260508081704 | 5 | 335 | 0.0 | 0.0 | 0.00 | 0.00 | 0.00 | 96 | 1004.0 |
| 20260508081202 | 5 | 335 | 0.0 | 0.0 | 0.00 | 0.00 | 0.00 | 96 | 1004.0 |
| 20260508080704 | 5 | 335 | 0.0 | 0.0 | 0.00 | 0.00 | 0.00 | 96 | 1004.0 |
| 20260508080202 | 6 | 335 | 0.0 | 0.0 | 0.00 | 0.00 | 0.00 | 96 | 1004.0 |
| 20260508075702 | 6 | 335 | 0.0 | 0.0 | 0.00 | 0.00 | 0.00 | 96 | 1004.0 |
| 20260508075203 | 6 | 335 | 0.0 | 0.0 | 0.00 | 0.00 | 0.00 | 96 | 1004.0 |
| 20260508074702 | 6 | 335 | 0.0 | 0.0 | 0.00 | 0.00 | 0.00 | 96 | 1004.0 |
| 20260508074202 | 6 | 335 | 1.6 | 1.6 | 0.00 | 0.00 | 0.00 | 96 | 1005.0 |
| 20260508073703 | 6 | 336 | 0.0 | 0.0 | 0.00 | 0.00 | 0.00 | 96 | 1005.0 |
| 20260508073204 | 6 | 336 | 0.0 | 0.0 | 0.00 | 0.00 | 0.00 | 96 | 1005.0 |
| 20260508072702 | 6 | 336 | 0.0 | 0.0 | 0.00 | 0.00 | 0.00 | 96 | 1004.0 |
| 20260508072203 | 6 | 336 | 0.0 | 0.0 | 0.00 | 0.00 | 0.00 | 96 | 1004.0 |
| 20260508071703 | 6 | 336 | 0.0 | 0.0 | 0.00 | 0.00 | 0.00 | 96 | 1004.0 |
| 20260508071202 | 5 | 336 | 0.0 | 0.0 | 0.00 | 0.00 | 0.00 | 96 | 1004.0 |
| 20260508070704 | 6 | 336 | 0.0 | 0.0 | 0.00 | 0.00 | 0.00 | 96 | 1004.0 |
| 20260508070202 | 6 | 336 | 0.0 | 0.0 | 0.00 | 0.00 | 0.00 | 96 | 1004.0 |
| 20260508065702 | 6 | 336 | 0.0 | 0.0 | 0.00 | 0.00 | 0.00 | 96 | 1004.0 |
| 20260508065203 | 5 | 336 | 0.0 | 0.0 | 0.00 | 0.00 | 0.00 | 96 | 1004.0 |
| 20260508064702 | 5 | 336 | 0.0 | 0.0 | 0.00 | 0.00 | 0.00 | 96 | 1004.0 |
| 20260508064203 | 5 | 336 | 0.0 | 0.0 | 0.00 | 0.00 | 0.00 | 95 | 1004.0 |
| 20260508063702 | 5 | 336 | 0.0 | 0.0 | 0.00 | 0.00 | 0.00 | 95 | 1004.0 |
| 20260508063206 | 5 | 336 | 0.0 | 0.0 | 0.00 | 0.00 | 0.00 | 95 | 1004.0 |
| 20260508062703 | 5 | 336 | 0.0 | 0.0 | 0.00 | 0.00 | 0.00 | 95 | 1004.0 |
| 20260508062204 | 5 | 336 | 0.0 | 0.0 | 0.00 | 0.00 | 0.00 | 95 | 1004.0 |
| 20260508061702 | 5 | 336 | 0.0 | 0.0 | 0.00 | 0.00 | 0.00 | 95 | 1004.0 |
| 20260508061202 | 5 | 336 | 0.0 | 0.0 | 0.00 | 0.00 | 0.00 | 95 | 1005.0 |
| 20260508060702 | 5 | 336 | 0.0 | 0.0 | 0.00 | 0.00 | 0.00 | 94 | 1005.0 |
| 20260508060202 | 5 | 336 | 0.0 | 0.0 | 0.00 | 0.00 | 0.00 | 94 | 1005.0 |
| 20260508055704 | 5 | 336 | 0.0 | 0.0 | 0.00 | 0.00 | 0.00 | 94 | 1005.0 |
| 20260508055204 | 5 | 336 | 0.0 | 0.0 | 0.00 | 0.00 | 0.00 | 94 | 1005.0 |
| 20260508054702 | 5 | 336 | 0.0 | 0.0 | 0.00 | 0.00 | 0.00 | 93 | 1005.0 |
| 20260508054202 | 6 | 336 | 0.0 | 0.0 | 0.00 | 0.00 | 0.00 | 92 | 1004.0 |
| 20260508053705 | 6 | 336 | 0.0 | 0.0 | 0.00 | 0.00 | 0.00 | 92 | 1004.0 |
| 20260508053205 | 6 | 336 | 0.0 | 0.0 | 0.00 | 0.00 | 0.00 | 92 | 1004.0 |
| 20260508052703 | 6 | 336 | 0.0 | 0.0 | 0.00 | 0.00 | 0.00 | 92 | 1005.0 |
| 20260508052203 | 6 | 336 | 0.0 | 0.0 | 0.00 | 0.00 | 0.00 | 91 | 1005.0 |
| 20260508051705 | 6 | 336 | 1.6 | 1.6 | 0.00 | 0.00 | 0.00 | 91 | 1005.0 |
| 20260508051202 | 6 | 336 | 0.0 | 0.0 | 0.00 | 0.00 | 0.00 | 90 | 1005.0 |
| 20260508050702 | 6 | 336 | 0.0 | 0.0 | 0.00 | 0.00 | 0.00 | 90 | 1005.0 |
| 20260508050202 | 6 | 336 | 0.0 | 0.0 | 0.00 | 0.00 | 0.00 | 89 | 1005.0 |
| 20260508045702 | 6 | 336 | 0.0 | 0.0 | 0.00 | 0.00 | 0.00 | 88 | 1005.0 |
| 20260508045203 | 7 | 336 | 0.0 | 0.0 | 0.00 | 0.00 | 0.00 | 87 | 1005.0 |
| 20260508044702 | 7 | 324 | 0.0 | 0.0 | 0.00 | 0.00 | 0.00 | 85 | 1005.0 |
| 20260508044202 | 7 | 24 | 1.6 | 1.6 | 0.00 | 0.00 | 0.00 | 82 | 1005.0 |
| 20260508043703 | 8 | 258 | 0.0 | 0.0 | 0.00 | 0.00 | 0.00 | 74 | 1005.0 |
| 20260508043204 | 10 | 312 | 1.6 | 1.6 | 0.00 | 0.00 | 0.00 | 62 | 1005.0 |
| 20260508042702 | 9 | 276 | 0.0 | 0.0 | 0.00 | 0.00 | 0.00 | 63 | 1004.0 |
| 20260508042203 | 9 | 276 | 0.0 | 0.0 | 0.00 | 0.00 | 0.00 | 61 | 1004.0 |
| 20260508041703 | 9 | 276 | 0.0 | 0.0 | 0.00 | 0.00 | 0.00 | 62 | 1004.0 |
| 20260508041202 | 9 | 276 | 0.0 | 0.0 | 0.00 | 0.00 | 0.00 | 62 | 1004.0 |
| 20260508040702 | 9 | 276 | 0.0 | 0.0 | 0.00 | 0.00 | 0.00 | 62 | 1004.0 |
| 20260508040202 | 9 | 276 | 0.0 | 0.0 | 0.00 | 0.00 | 0.00 | 61 | 1004.0 |
| 20260508035702 | 9 | 276 | 0.0 | 0.0 | 0.00 | 0.00 | 0.00 | 60 | 1004.0 |
| 20260508035204 | 10 | 276 | 0.0 | 0.0 | 0.00 | 0.00 | 0.00 | 58 | 1004.0 |
| 20260508034703 | 10 | 276 | 0.0 | 0.0 | 0.00 | 0.00 | 0.00 | 57 | 1004.0 |
| 20260508034203 | 10 | 276 | 0.0 | 0.0 | 0.00 | 0.00 | 0.00 | 56 | 1004.0 |
| 20260508033705 | 10 | 276 | 1.6 | 1.6 | 0.00 | 0.00 | 0.00 | 55 | 1004.0 |
| 20260508033203 | 10 | 276 | 0.0 | 0.0 | 0.00 | 0.00 | 0.00 | 56 | 1004.0 |
| 20260508032703 | 10 | 276 | 3.2 | 3.2 | 0.00 | 0.00 | 0.00 | 54 | 1005.0 |
| 20260508032203 | 11 | 276 | 3.2 | 3.2 | 0.00 | 0.00 | 0.00 | 54 | 1005.0 |
| 20260508031702 | 11 | 234 | 1.6 | 1.6 | 0.00 | 0.00 | 0.00 | 55 | 1005.0 |
| 20260508031203 | 10 | 234 | 3.2 | 3.2 | 0.00 | 0.00 | 0.00 | 54 | 1005.0 |
| 20260508030702 | 11 | 270 | 3.2 | 3.2 | 0.00 | 0.00 | 0.00 | 53 | 1005.0 |
| 20260508030202 | 10 | 319 | 3.2 | 3.2 | 0.00 | 0.00 | 0.00 | 55 | 1005.0 |
| 20260508025702 | 10 | 264 | 3.2 | 3.2 | 0.00 | 0.00 | 0.00 | 53 | 1005.0 |
| 20260508025203 | 10 | 246 | 1.6 | 1.6 | 0.00 | 0.00 | 0.00 | 54 | 1005.0 |
| 20260508024704 | 10 | 246 | 3.2 | 3.2 | 0.00 | 0.00 | 0.00 | 53 | 1005.0 |
| 20260508024202 | 10 | 276 | 3.2 | 3.2 | 0.00 | 0.00 | 0.00 | 54 | 1005.0 |
| 20260508023702 | 10 | 245 | 3.2 | 3.2 | 0.00 | 0.00 | 0.00 | 53 | 1005.0 |
| 20260508023202 | 10 | 30 | 0.0 | 0.0 | 0.00 | 0.00 | 0.00 | 53 | 1005.0 |
| 20260508022702 | 10 | 30 | 3.2 | 3.2 | 0.00 | 0.00 | 0.00 | 52 | 1005.0 |
| 20260508022202 | 10 | 30 | 0.0 | 0.0 | 0.00 | 0.00 | 0.00 | 51 | 1005.0 |
| 20260508021703 | 10 | 30 | 0.0 | 0.0 | 0.00 | 0.00 | 0.00 | 52 | 1005.0 |
| 20260508021202 | 10 | 30 | 0.0 | 0.0 | 0.00 | 0.00 | 0.00 | 52 | 1004.0 |
| 20260508020702 | 10 | 30 | 0.0 | 0.0 | 0.00 | 0.00 | 0.00 | 50 | 1004.0 |
| 20260508020202 | 10 | 30 | 0.0 | 0.0 | 0.00 | 0.00 | 0.00 | 51 | 1004.0 |
| 20260508015702 | 10 | 30 | 0.0 | 0.0 | 0.00 | 0.00 | 0.00 | 49 | 1004.0 |
| 20260508015202 | 10 | 30 | 0.0 | 0.0 | 0.00 | 0.00 | 0.00 | 49 | 1004.0 |
| 20260508014702 | 10 | 30 | 0.0 | 0.0 | 0.00 | 0.00 | 0.00 | 49 | 1004.0 |
| 20260508014203 | 10 | 30 | 0.0 | 0.0 | 0.00 | 0.00 | 0.00 | 48 | 1004.0 |
| 20260508013702 | 10 | 308 | 0.0 | 0.0 | 0.00 | 0.00 | 0.00 | 49 | 1004.0 |
| 20260508013203 | 10 | 308 | 0.0 | 0.0 | 0.00 | 0.00 | 0.00 | 47 | 1004.0 |
| 20260508012703 | 11 | 307 | 1.6 | 1.6 | 0.00 | 0.00 | 0.00 | 47 | 1004.0 |
| 20260508012203 | 11 | 307 | 0.0 | 0.0 | 0.00 | 0.00 | 0.00 | 46 | 1004.0 |
| 20260508011705 | 11 | 300 | 3.2 | 3.2 | 0.00 | 0.00 | 0.00 | 45 | 1004.0 |
| 20260508011203 | 11 | 237 | 0.0 | 0.0 | 0.00 | 0.00 | 0.00 | 45 | 1004.0 |
| 20260508010703 | 11 | 246 | 0.0 | 0.0 | 0.00 | 0.00 | 0.00 | 44 | 1004.0 |
| 20260508010203 | 11 | 252 | 3.2 | 3.2 | 0.00 | 0.00 | 0.00 | 44 | 1004.0 |
| 20260508005702 | 11 | 252 | 3.2 | 3.2 | 0.00 | 0.00 | 0.00 | 43 | 1004.0 |
| 20260508005202 | 11 | 252 | 3.2 | 3.2 | 0.00 | 0.00 | 0.00 | 43 | 1004.0 |
| 20260508004703 | 11 | 240 | 0.0 | 0.0 | 0.00 | 0.00 | 0.00 | 43 | 1004.0 |
| 20260508004204 | 11 | 243 | 3.2 | 3.2 | 0.00 | 0.00 | 0.00 | 42 | 1004.0 |
| 20260508003702 | 11 | 264 | 0.0 | 0.0 | 0.00 | 0.00 | 0.00 | 42 | 1004.0 |
| 20260508003202 | 11 | 234 | 0.0 | 0.0 | 0.00 | 0.00 | 0.00 | 42 | 1004.0 |
| 20260508002706 | 11 | 252 | 0.0 | 0.0 | 0.00 | 0.00 | 0.00 | 42 | 1004.0 |
| 20260508002202 | 11 | 252 | 4.8 | 4.8 | 0.00 | 0.00 | 0.00 | 41 | 1004.0 |
| 20260508001702 | 12 | 250 | 3.2 | 3.2 | 0.00 | 0.00 | 0.00 | 40 | 1004.0 |
| 20260508001202 | 12 | 234 | 3.2 | 3.2 | 0.00 | 0.00 | 0.00 | 40 | 1004.0 |
| 20260507232202 | 12 | 223 | 3.2 | 3.2 | 0.00 | 0.00 | 0.00 | 39 | 1004.0 |
| 20260507231703 | 12 | 228 | 4.8 | 6.4 | 0.00 | 0.00 | 0.00 | 38 | 1004.0 |
| 20260507231203 | 12 | 264 | 4.8 | 4.8 | 0.00 | 0.00 | 0.00 | 39 | 1004.0 |
| 20260507230703 | 12 | 258 | 3.2 | 3.2 | 0.00 | 0.00 | 0.00 | 39 | 1004.0 |
| 20260507230202 | 12 | 228 | 9.7 | 11.3 | 0.00 | 0.00 | 0.00 | 40 | 1004.0 |
| 20260507225703 | 12 | 276 | 3.2 | 3.2 | 0.00 | 0.00 | 0.00 | 38 | 1004.0 |
| 20260507225203 | 13 | 218 | 3.2 | 3.2 | 0.00 | 0.00 | 0.00 | 38 | 1004.0 |
| 20260507224702 | 12 | 278 | 3.2 | 3.2 | 0.00 | 0.00 | 0.00 | 39 | 1004.0 |
| 20260507222702 | 12 | 234 | 3.2 | 3.2 | 0.00 | 0.00 | 0.00 | 37 | 1004.0 |
| 20260507221203 | 13 | 42 | 3.2 | 3.2 | 0.00 | 0.00 | 0.00 | 39 | 1004.0 |